Location: Powder Track
(41.8531°N, 72.3584°W)
Time: 21:23:56
(UTC+00:00)

X-37B - Pass Details

Date: 02 July 2021
Orbit: 383 x 392 km, 45.0° (Epoch: 01 July)

Event Time Altitude Azimuth Distance (km) Brightness Sun altitude
Rises 01:20:14 0° 285° (WNW) 2,260 5.7 -8.5°
Reaches altitude 10° 01:22:21 10° 291° (WNW) 1,404 4.7 -8.8°
Maximum altitude 01:25:25 48° 7° (N) 510 1.4 -9.3°
Drops below altitude 10° 01:28:29 10° 84° (E) 1,401 3.0 -9.7°
Enters shadow 01:29:07 - 86° (E) 1,650 3.4 -9.8°
